Regional Weather Roundup
Issued by NWS

Home | Current Version | Previous Version | Text Only | Print | Product List | Glossary Off
Versions: 1 2 3 4 5 6 7 8 9 10 11 12 13 14 15 16 17 18 19 20 21 22 23 24 25 26 27 28 29 30 31 32 33 34 35 36 37 38 39 40 41 42 43 44 45 46 47 48 49 50

511
ASUS43 KOAX 281910
RWRNE

WEATHER ROUNDUP FOR NEBRASKA
NATIONAL WEATHER SERVICE OMAHA NE
200 PM CDT WED SEP 28 2016

NOTES: SATELLITE DATA IS BEING USED TO AUGMENT CLOUD COVER ABOVE
       12000 FEET.
       "FAIR" INDICATES FEW OR NO CLOUDS BELOW 12,000 FEET WITH NO
       SIGNIFICANT WEATHER AND/OR OBSTRUCTIONS TO VISIBILITY.

  * THESE STATIONS DO NOT REPORT WEATHER SUCH AS RAIN...SNOW OR FOG.

NEZ001>004-019>022-054>056-282000-
NEBRASKA PANHANDLE

CITY           SKY/WX    TMP DP  RH WIND       PRES   REMARKS
SCOTTSBLUFF    SUNNY     78  43  28 E7        30.29F
ALLIANCE       SUNNY     78  40  25 E5        30.27F
CHADRON        SUNNY     79  39  23 CALM      30.25F
KIMBALL        SUNNY     75  42  30 NE7       30.34S
SIDNEY         SUNNY     77  39  25 E9        30.31S
$$

NEZ057>060-069>072-079>082-282000-
SOUTHWEST NEBRASKA

CITY           SKY/WX    TMP DP  RH WIND       PRES   REMARKS
NORTH PLATTE   SUNNY     77  42  28 NE10G18   30.23F
IMPERIAL       SUNNY     79  39  23 E12       30.24F
LEXINGTON      SUNNY     74  40  28 NE10G21   30.23S HAZE
MCCOOK         SUNNY     78  45  30 N13       30.22F
OGALLALA       SUNNY     82  35  19 NE8G16    30.25S
$$

NEZ005>010-023>029-035>040-094-282000-
NORTH CENTRAL NEBRASKA

CITY           SKY/WX    TMP DP  RH WIND       PRES   REMARKS
VALENTINE      SUNNY     71  36  27 N6        30.26S
AINSWORTH      SUNNY     68  33  27 N10       30.27S
BROKEN BOW     SUNNY     73  31  21 NE10G20   30.24S
O`NEILL        SUNNY     64  43  47 N8        30.26S
ORD            SUNNY     70  33  25 NE13      30.22F
THEDFORD       SUNNY     76  45  34 NE9G17    30.26S
$$

NEZ041-046>049-061>064-073>077-083>087-282000-
SOUTH CENTRAL NEBRASKA

CITY           SKY/WX    TMP DP  RH WIND       PRES   REMARKS
GRAND ISLAND   SUNNY     67  44  43 N10G22    30.22S
AURORA         SUNNY     66  45  46 N9G18     30.22S
HASTINGS       SUNNY     69  43  38 N18       30.22F
HEBRON         SUNNY     68  42  39 NE12G18   30.19S
HOLDREGE       SUNNY     72  32  23 NE13G21   30.22S
KEARNEY *      SUNNY     72  30  21 N13G20    30.21F
YORK           SUNNY     64  45  48 N10G20    30.22S
$$

NEZ011>018-030>034-042>045-282000-
NORTHEAST NEBRASKA

CITY           SKY/WX    TMP DP  RH WIND       PRES   REMARKS
NORFOLK        SUNNY     64  42  44 N10       30.23S
ALBION         SUNNY     64  44  47 N8        30.24S
BLAIR          SUNNY     62  48  59 N10       30.20S
FREMONT        MOSUNNY   64  45  50 NW12      30.21S
TEKAMAH        SUNNY     62  46  55 N13G21    30.22R
WAYNE          SUNNY     63  47  55 N9        30.24S
$$

NEZ050>053-065>068-078-088>093-282000-
SOUTHEAST NEBRASKA

CITY           SKY/WX    TMP DP  RH WIND       PRES   REMARKS
LINCOLN        SUNNY     67  46  47 N12G23    30.21S
OMAHA EPPLEY   MOSUNNY   63  47  55 N13       30.20S
BEATRICE       SUNNY     67  46  47 N12G18    30.19R
FALLS CITY     SUNNY     65  48  54 N12G21    30.15S
NEBRASKA CITY  SUNNY     63  40  42 N12G18    30.18S
PLATTSMOUTH    MOSUNNY   64  43  47 N8        30.19S
$$

NEZ044-045-051>053-067-282000-
OMAHA AREA

CITY           SKY/WX    TMP DP  RH WIND       PRES   REMARKS
OMAHA EPPLEY   MOSUNNY   63  47  55 N13       30.20S
BLAIR          SUNNY     62  48  59 N10       30.20S
FREMONT        MOSUNNY   64  45  50 NW12      30.21S
MILLARD        SUNNY     63  47  55 N7        30.20R
OFFUTT AFB     SUNNY     62  48  61 N9        30.19S
PLATTSMOUTH    MOSUNNY   64  43  47 N8        30.19S
WAHOO          FAIR      65  43  43 N13G18    30.20F
$$




USA.gov is the U.S. government's official web portal to all federal, state and local government web resources and services.